TimeCST,TemperatureF,Dew PointF,Humidity,Sea Level PressureIn,VisibilityMPH,Wind Direction,Wind SpeedMPH,Gust SpeedMPH,PrecipitationIn,Events,Conditions,WindDirDegrees,DateUTC
12:15 AM,59.0,48.2,67,30.06,10.0,ESE,11.5,-,N/A,,Clear,120,2013-02-15 06:15:00
12:55 AM,59.0,48.2,67,30.06,10.0,SE,9.2,-,N/A,,Clear,130,2013-02-15 06:55:00
1:15 AM,59.0,48.2,67,30.07,10.0,SE,8.1,-,N/A,,Clear,130,2013-02-15 07:15:00
1:35 AM,59.0,50.0,72,30.07,10.0,ESE,8.1,-,N/A,,Clear,120,2013-02-15 07:35:00
1:55 AM,59.0,50.0,72,30.07,10.0,ESE,8.1,-,N/A,,Clear,110,2013-02-15 07:55:00
2:15 AM,59.0,50.0,72,30.08,10.0,ESE,6.9,-,N/A,,Clear,110,2013-02-15 08:15:00
2:35 AM,59.0,50.0,72,30.07,10.0,ESE,5.8,-,N/A,,Clear,110,2013-02-15 08:35:00
2:55 AM,59.0,50.0,72,30.07,10.0,ESE,5.8,-,N/A,,Clear,110,2013-02-15 08:55:00
3:15 AM,59.0,50.0,72,30.07,10.0,ESE,4.6,-,N/A,,Clear,110,2013-02-15 09:15:00
3:35 AM,59.0,51.8,77,30.07,10.0,ESE,4.6,-,N/A,,Clear,110,2013-02-15 09:35:00
3:55 AM,55.4,51.8,88,30.08,10.0,ESE,3.5,-,N/A,,Clear,110,2013-02-15 09:55:00
4:15 AM,55.4,51.8,88,30.09,10.0,Calm,Calm,-,N/A,,Clear,0,2013-02-15 10:15:00
4:35 AM,55.4,51.8,88,30.09,10.0,ESE,3.5,-,N/A,,Clear,110,2013-02-15 10:35:00
4:55 AM,53.6,50.0,88,30.09,10.0,East,4.6,-,N/A,,Clear,90,2013-02-15 10:55:00
5:15 AM,55.4,51.8,88,30.09,10.0,East,4.6,-,N/A,,Clear,80,2013-02-15 11:15:00
5:35 AM,55.4,51.8,88,30.09,10.0,East,4.6,-,N/A,,Clear,80,2013-02-15 11:35:00
5:55 AM,55.4,51.8,88,30.09,10.0,East,4.6,-,N/A,,Clear,80,2013-02-15 11:55:00
6:15 AM,55.4,50.0,82,30.10,10.0,East,4.6,-,N/A,,Clear,80,2013-02-15 12:15:00
6:35 AM,55.4,51.8,88,30.10,10.0,East,4.6,-,N/A,,Clear,80,2013-02-15 12:35:00
6:55 AM,55.4,51.8,88,30.11,10.0,East,4.6,-,N/A,,Clear,80,2013-02-15 12:55:00
7:15 AM,55.4,51.8,88,30.11,10.0,East,3.5,-,N/A,,Clear,80,2013-02-15 13:15:00
7:35 AM,55.4,51.8,88,30.12,10.0,East,3.5,-,N/A,,Clear,90,2013-02-15 13:35:00
7:55 AM,59.0,53.6,82,30.13,10.0,East,3.5,-,N/A,,Clear,80,2013-02-15 13:55:00
8:15 AM,60.8,53.6,77,30.14,10.0,East,4.6,-,N/A,,Clear,80,2013-02-15 14:15:00
8:35 AM,62.6,51.8,68,30.15,10.0,East,5.8,-,N/A,,Clear,90,2013-02-15 14:35:00
8:55 AM,62.6,51.8,68,30.15,10.0,East,5.8,-,N/A,,Clear,80,2013-02-15 14:55:00
9:15 AM,64.4,50.0,59,30.16,10.0,ENE,5.8,-,N/A,,Clear,70,2013-02-15 15:15:00
9:35 AM,64.4,50.0,59,30.17,10.0,ENE,6.9,-,N/A,,Clear,70,2013-02-15 15:35:00
9:55 AM,64.4,51.8,64,30.18,10.0,ENE,9.2,-,N/A,,Clear,70,2013-02-15 15:55:00
10:15 AM,64.4,50.0,59,30.18,10.0,ENE,8.1,-,N/A,,Clear,70,2013-02-15 16:15:00
10:35 AM,64.4,50.0,59,30.18,10.0,East,8.1,-,N/A,,Clear,80,2013-02-15 16:35:00
10:55 AM,64.4,50.0,59,30.18,10.0,ENE,9.2,-,N/A,,Clear,70,2013-02-15 16:55:00
11:15 AM,64.4,51.8,64,30.18,10.0,ENE,9.2,-,N/A,,Clear,70,2013-02-15 17:15:00
11:35 AM,66.2,53.6,64,30.18,10.0,ENE,11.5,16.1,N/A,,Clear,60,2013-02-15 17:35:00
12:15 PM,66.2,53.6,64,30.18,10.0,ENE,15.0,-,N/A,,Clear,60,2013-02-15 18:15:00
12:55 PM,64.4,51.8,64,30.17,10.0,NE,18.4,24.2,N/A,,Clear,50,2013-02-15 18:55:00
1:15 PM,64.4,51.8,64,30.16,10.0,ENE,17.3,-,N/A,,Clear,60,2013-02-15 19:15:00
1:35 PM,64.4,51.8,64,30.15,10.0,ENE,16.1,-,N/A,,Clear,60,2013-02-15 19:35:00
1:55 PM,64.4,51.8,64,30.15,10.0,ENE,15.0,-,N/A,,Clear,70,2013-02-15 19:55:00
2:15 PM,64.4,51.8,64,30.14,10.0,ENE,16.1,-,N/A,,Clear,70,2013-02-15 20:15:00
2:35 PM,64.4,51.8,64,30.13,10.0,ENE,13.8,19.6,N/A,,Clear,70,2013-02-15 20:35:00
2:55 PM,64.4,51.8,64,30.14,10.0,ENE,13.8,19.6,N/A,,Clear,70,2013-02-15 20:55:00
3:15 PM,64.4,51.8,64,30.14,10.0,ENE,11.5,17.3,N/A,,Clear,70,2013-02-15 21:15:00
3:35 PM,64.4,51.8,64,30.14,10.0,East,12.7,-,N/A,,Clear,90,2013-02-15 21:35:00
3:55 PM,62.6,51.8,68,30.14,10.0,East,13.8,-,N/A,,Clear,90,2013-02-15 21:55:00
4:15 PM,62.6,44.6,52,30.13,10.0,East,11.5,-,N/A,,Clear,90,2013-02-15 22:15:00
4:35 PM,62.6,42.8,48,30.13,10.0,East,11.5,17.3,N/A,,Clear,90,2013-02-15 22:35:00
4:55 PM,62.6,42.8,48,30.14,10.0,East,11.5,-,N/A,,Clear,90,2013-02-15 22:55:00
5:15 PM,62.6,42.8,48,30.14,10.0,East,10.4,-,N/A,,Clear,100,2013-02-15 23:15:00
5:35 PM,62.6,42.8,48,30.14,10.0,East,10.4,-,N/A,,Clear,90,2013-02-15 23:35:00
5:55 PM,60.8,44.6,55,30.14,10.0,East,9.2,-,N/A,,Clear,90,2013-02-15 23:55:00
6:15 PM,60.8,44.6,55,30.15,10.0,East,10.4,-,N/A,,Clear,90,2013-02-16 00:15:00
6:35 PM,59.0,44.6,59,30.16,10.0,East,8.1,-,N/A,,Clear,80,2013-02-16 00:35:00
6:55 PM,59.0,46.4,63,30.17,10.0,East,8.1,-,N/A,,Clear,80,2013-02-16 00:55:00
7:15 PM,59.0,46.4,63,30.17,10.0,East,8.1,-,N/A,,Clear,80,2013-02-16 01:15:00
7:35 PM,59.0,44.6,59,30.18,10.0,East,8.1,-,N/A,,Clear,80,2013-02-16 01:35:00
7:55 PM,59.0,44.6,59,30.19,10.0,East,8.1,-,N/A,,Clear,80,2013-02-16 01:55:00
8:15 PM,59.0,46.4,63,30.19,10.0,East,6.9,-,N/A,,Clear,80,2013-02-16 02:15:00
8:35 PM,59.0,48.2,67,30.20,10.0,East,4.6,-,N/A,,Clear,80,2013-02-16 02:35:00
8:55 PM,59.0,50.0,72,30.22,10.0,East,5.8,-,N/A,,Clear,80,2013-02-16 02:55:00
9:15 PM,59.0,50.0,72,30.22,10.0,East,4.6,-,N/A,,Scattered Clouds,90,2013-02-16 03:15:00
9:35 PM,59.0,50.0,72,30.23,10.0,ENE,4.6,-,N/A,,Mostly Cloudy,70,2013-02-16 03:35:00
9:55 PM,59.0,50.0,72,30.24,10.0,ENE,4.6,-,N/A,,Overcast,60,2013-02-16 03:55:00
10:15 PM,59.0,51.8,77,30.26,10.0,North,8.1,-,N/A,,Overcast,10,2013-02-16 04:15:00
10:35 PM,59.0,46.4,63,30.27,10.0,NNE,16.1,24.2,N/A,,Mostly Cloudy,20,2013-02-16 04:35:00
10:55 PM,55.4,42.8,63,30.28,10.0,NNE,21.9,31.1,N/A,,Mostly Cloudy,20,2013-02-16 04:55:00
11:15 PM,55.4,42.8,63,30.30,10.0,NNE,21.9,-,N/A,,Scattered Clouds,20,2013-02-16 05:15:00
11:35 PM,55.4,42.8,63,30.30,10.0,NNE,21.9,26.5,N/A,,Scattered Clouds,20,2013-02-16 05:35:00
11:55 PM,55.4,42.8,63,30.31,10.0,NNE,20.7,28.8,N/A,,Overcast,20,2013-02-16 05:55:00